Eureka, NV

3:13 AM PDT on June 29, 2017 (GMT -0700)
Eureka

Weather History for KP68 - January, 2014

Change the Weather History Date:

Wednesday, January 29, 2014

  Actual Average Record
Temperature  
Mean Temperature 46 °F 25 °F  
Max Temperature 57 °F 39 °F 57 °F (2011)
Min Temperature 34 °F 12 °F -23 °F (2002)
Degree Days  
Heating Degree Days 19 40  
Month to date heating degree days 928 1199  
Since 1 July heating degree days 3879 4205  
Cooling Degree Days 0 0  
Month to date cooling degree days 0 0  
Year to date cooling degree days 0 0  
Moisture  
Dew Point 36 °F    
Average Humidity 72    
Maximum Humidity 92    
Minimum Humidity 51    
Precipitation  
Precipitation 0.21 in 0.02 in 0.24 in (2005)
Month to date precipitation 0.26 0.68  
Year to date precipitation 0.26 0.68  
Sea Level Pressure  
Sea Level Pressure 29.94 in    
Wind  
Wind Speed 9 mph (WSW)    
Max Wind Speed 23 mph    
Max Gust Speed 30 mph    
T = Trace of Precipitation, MM = Missing Value Source: NWS Daily Summary

Daily Weather History Graph

Daily Weather History Graph

Search for Another Location

Airport or City:

Trip Planner

Search our weather history database for the weather conditions in past years. The results will help you decide how hot, cold, wet, or windy it might be!

Date:

Astronomy

Jan. 29, 2014 Rise Set
Actual Time 6:53 AM PST 5:00 PM PST
Civil Twilight 6:25 AM PST 5:29 PM PST
Nautical Twilight 5:53 AM PST 6:01 PM PST
Astronomical Twilight 5:21 AM PST 6:33 PM PST
Moon 5:34 AM PST 4:05 PM PST
Length of Visible Light 11h 03m
Length of Day
10h 06m
Waning Crescent, 2% of the Moon is Illuminated
Jan 29
Waning Crescent
Jan 30
New
Feb 6
First Quarter
Feb 14
Full
Feb 22
Last Quarter

Hourly Weather History & Observations

Time (PST) Temp. Windchill Dew Point Humidity Pressure Visibility Wind Dir Wind Speed Gust Speed Precip Events Conditions
12:53 AM 39.0 °F 36.8 °F 28.9 °F 67% 30.11 in - South 3.5 mph - N/A   Unknown
1:53 AM 39.0 °F - 30.0 °F 70% 30.12 in - Calm Calm - N/A   Unknown
2:53 AM 36.0 °F 31.1 °F 33.1 °F 89% 30.10 in - SSW 5.8 mph - 0.01 in   Unknown
3:53 AM 37.0 °F 33.3 °F 33.1 °F 86% 30.10 in - North 4.6 mph - N/A   Unknown
4:53 AM 35.1 °F - 33.1 °F 92% 30.10 in - Calm Calm - N/A   Unknown
5:53 AM 35.1 °F 32.2 °F 32.0 °F 89% 30.11 in - SSW 3.5 mph - N/A   Unknown
6:53 AM 36.0 °F 29.6 °F 33.1 °F 89% 30.10 in - SSW 8.1 mph - N/A   Unknown
7:53 AM 37.0 °F 29.8 °F 32.0 °F 82% 30.11 in - SSW 10.4 mph - N/A   Unknown
8:53 AM 39.0 °F 35.7 °F 34.0 °F 82% 30.09 in - Variable 4.6 mph - N/A   Unknown
9:53 AM 44.1 °F 40.1 °F 37.0 °F 76% 30.06 in - South 6.9 mph - N/A   Unknown
10:53 AM 52.0 °F - 37.0 °F 57% 29.96 in - ESE 4.6 mph - N/A   Unknown
11:53 AM 55.9 °F - 37.9 °F 51% 29.93 in - West 11.5 mph 20.7 mph N/A   Unknown
12:53 PM 55.9 °F - 39.0 °F 53% 29.87 in - WSW 11.5 mph - N/A   Unknown
1:53 PM 54.0 °F - 37.9 °F 55% 29.85 in - West 6.9 mph - N/A   Unknown
2:53 PM 48.9 °F - 42.1 °F 77% 29.85 in - SSW 9.2 mph - 0.01 in   Unknown
3:53 PM 50.0 °F - 39.0 °F 66% 29.82 in - WSW 17.3 mph 24.2 mph N/A   Unknown
4:53 PM 48.9 °F - 37.0 °F 64% 29.81 in - WSW 13.8 mph - N/A   Unknown
5:53 PM 50.0 °F - 37.0 °F 61% 29.81 in - WSW 19.6 mph - N/A   Unknown
6:53 PM 48.0 °F - 37.0 °F 66% 29.80 in - WSW 15.0 mph - N/A   Unknown
7:53 PM 46.0 °F 41.0 °F 37.0 °F 71% 29.81 in - West 10.4 mph - N/A   Unknown
8:53 PM 43.0 °F 38.2 °F 39.0 °F 86% 29.81 in - West 8.1 mph - 0.02 in   Unknown
9:53 PM 42.1 °F 36.6 °F 39.0 °F 89% 29.80 in - West 9.2 mph - 0.05 in   Unknown
10:53 PM 42.1 °F 36.6 °F 39.0 °F 89% 29.76 in - West 9.2 mph - 0.06 in   Unknown
11:53 PM 37.9 °F 28.2 °F 36.0 °F 93% 29.74 in - NNE 18.4 mph 21.9 mph 0.05 in   Unknown